Home > Weather > Doha > Past weeks

Flag for Qatar Past Weather in Doha, Qatar — Yesterday and Last 2 Weeks

Now
88 °F

Clear.


Feels Like: 86 °F
Forecast: 84 / 100 °F
Wind: 17 mph from Northwest

Location: Doha International Airport

Current Time: May 25, 2016 at 9:57:12 PM

Latest Report: May 25, 2016 at 9:00 PM


Visibility: 10 mi

Pressure: 29.68 "Hg

Humidity: 33%

Dew Point: 55 °F

Location of DohaLocation

Past Weather in Doha — Graph

°F

Doha Temperature Yesterday

Maximum temperature yesterday: 113 °F (at 12:00 PM)
Minimum temperature yesterday: 90 °F (at 3:00 AM)
Average temperature yesterday: 97 °F

High & Low Weather Summary for the Past Weeks

 TemperatureHumidityPressure
High113 °F (May 13, 1:00 PM)75% (May 16, 7:00 PM)29.83 "Hg (May 16, 7:00 PM)
Low81 °F (May 17, 4:00 AM)6% (May 13, 12:00 PM)29.56 "Hg (May 19, 3:00 PM)
Average93 °F32%29.68 "Hg
* Reported May 10 8:00 PM — May 25 8:00 PM, Doha, Weather by CustomWeather, © 2016

Note: Actual official high and low records may vary slightly from our data, if they occured in-between our weather recording intervals... More about our weather records

Advertising

Doha Weather History for the Previous 24 Hours

Scroll right to see more
 ConditionsComfort  
Time TempWeatherWind HumidityBarometerVisibility
8:00 PM
Wed, May 25
88 °FPassing clouds.14 mph27%29.68 "HgN/A
7:00 PM90 °FPassing clouds.12 mph27%29.65 "HgN/A
6:00 PM91 °FPassing clouds.15 mph24%29.65 "HgN/A
5:00 PM95 °FSunny.14 mph16%29.65 "Hg10 mi
4:00 PM95 °FSunny.16 mph18%29.65 "Hg10 mi
3:00 PM99 °FSunny.17 mph17%29.65 "Hg10 mi
2:00 PM100 °FClear.18 mph15%29.65 "Hg6 mi
1:00 PM100 °FClear.20 mph13%29.65 "Hg6 mi
12:00 PM99 °FClear.23 mph15%29.65 "Hg4 mi
11:00 AM100 °FLow level haze.20 mph14%29.68 "Hg3 mi
10:00 AM99 °FLow level haze.23 mph17%29.68 "Hg2 mi
9:00 AM95 °FLow level haze.24 mph23%29.68 "Hg2 mi
8:00 AM93 °FDuststorm.24 mph30%29.68 "Hg3 mi
7:00 AM90 °FClear.22 mph38%29.65 "Hg4 mi
6:00 AM90 °FClear.17 mph36%29.65 "Hg5 mi
5:00 AM90 °FClear.16 mph36%29.62 "Hg4 mi
4:00 AM91 °FClear.14 mph26%29.62 "Hg10 mi
3:00 AM93 °FPassing clouds.15 mph16%29.62 "HgN/A
2:00 AM91 °FPassing clouds.6 mph26%29.59 "HgN/A
1:00 AM90 °FPassing clouds.9 mph31%29.59 "HgN/A
12:00 AM90 °FClear.No wind33%29.59 "Hg10 mi
11:00 PM
Tue, May 24
90 °FClear.No wind38%29.59 "Hg10 mi
10:00 PM90 °FClear.5 mph31%29.62 "Hg10 mi
9:00 PM91 °FClear.3 mph28%29.59 "Hg10 mi
Weather by CustomWeather, © 2016

See weather overviewHow to use our weather pages